| time (UTC) | temp F | wind direction | speed knots | gust knots | rain 1hr in | rain 24hr in | rain mn in | humidity % | barometer mb |
| 20260507203103 | 70 | 261 | 7.0 | 12.2 | 0.00 | 0.00 | 0.00 | 28 | 1015.6 |
| 20260507202556 | 69 | 295 | 7.8 | 11.3 | 0.00 | 0.00 | 0.00 | 25 | 1015.4 |
| 20260507202057 | 70 | 224 | 6.1 | 13.9 | 0.00 | 0.00 | 0.00 | 25 | 1015.5 |
| 20260507201611 | 69 | 302 | 6.1 | 13.9 | 0.00 | 0.00 | 0.00 | 25 | 1015.6 |
| 20260507201059 | 69 | 288 | 7.0 | 13.9 | 0.00 | 0.00 | 0.00 | 26 | 1015.6 |
| 20260507200558 | 69 | 281 | 8.7 | 13.9 | 0.00 | 0.00 | 0.00 | 27 | 1015.5 |
| 20260507200057 | 68 | 242 | 4.3 | 13.9 | 0.00 | 0.00 | 0.00 | 26 | 1015.7 |
| 20260507195558 | 69 | 227 | 7.8 | 13.9 | 0.00 | 0.00 | 0.00 | 25 | 1015.7 |
| 20260507195059 | 68 | 269 | 5.2 | 13.0 | 0.00 | 0.00 | 0.00 | 24 | 1015.8 |
| 20260507194634 | 68 | 280 | 7.8 | 13.9 | 0.00 | 0.00 | 0.00 | 27 | 1015.8 |
| 20260507194102 | 67 | 269 | 8.7 | 13.9 | 0.00 | 0.00 | 0.00 | 26 | 1015.8 |
| 20260507193600 | 68 | 231 | 6.1 | 13.0 | 0.00 | 0.00 | 0.00 | 27 | 1015.8 |
| 20260507193059 | 67 | 271 | 7.0 | 13.0 | 0.00 | 0.00 | 0.00 | 26 | 1015.9 |
| 20260507192600 | 67 | 246 | 4.3 | 10.4 | 0.00 | 0.00 | 0.00 | 26 | 1015.8 |
| 20260507192100 | 67 | 243 | 7.0 | 13.0 | 0.00 | 0.00 | 0.00 | 26 | 1015.8 |
| 20260507191601 | 67 | 199 | 4.3 | 13.0 | 0.00 | 0.00 | 0.00 | 29 | 1015.9 |
| 20260507191100 | 67 | 259 | 6.1 | 18.2 | 0.00 | 0.00 | 0.00 | 27 | 1015.9 |
| 20260507190600 | 67 | 239 | 7.0 | 18.2 | 0.00 | 0.00 | 0.00 | 27 | 1016.0 |
| 20260507190059 | 67 | 288 | 4.3 | 13.0 | 0.00 | 0.00 | 0.00 | 26 | 1016.0 |
| 20260507185600 | 66 | 246 | 5.2 | 13.0 | 0.00 | 0.00 | 0.00 | 27 | 1016.1 |
| 20260507185103 | 66 | 198 | 5.2 | 12.2 | 0.00 | 0.00 | 0.00 | 27 | 1016.1 |
| 20260507184607 | 66 | 207 | 4.3 | 13.0 | 0.00 | 0.00 | 0.00 | 27 | 1016.1 |
| 20260507184100 | 66 | 306 | 7.8 | 13.0 | 0.00 | 0.00 | 0.00 | 25 | 1016.1 |
| 20260507183601 | 66 | 257 | 7.0 | 13.0 | 0.00 | 0.00 | 0.00 | 27 | 1016.1 |
| 20260507183059 | 66 | 208 | 5.2 | 13.0 | 0.00 | 0.00 | 0.00 | 29 | 1016.1 |
| 20260507182600 | 66 | 225 | 6.1 | 13.0 | 0.00 | 0.00 | 0.00 | 31 | 1016.2 |
| 20260507182101 | 65 | 272 | 7.0 | 11.3 | 0.00 | 0.00 | 0.00 | 30 | 1016.2 |
| 20260507181600 | 65 | 280 | 6.1 | 11.3 | 0.00 | 0.00 | 0.00 | 31 | 1016.3 |
| 20260507181101 | 65 | 257 | 4.3 | 11.3 | 0.00 | 0.00 | 0.00 | 32 | 1016.3 |
| 20260507180604 | 65 | 275 | 4.3 | 11.3 | 0.00 | 0.00 | 0.00 | 35 | 1016.3 |
| 20260507180106 | 64 | 224 | 4.3 | 11.3 | 0.00 | 0.00 | 0.00 | 35 | 1016.3 |
| 20260507175601 | 64 | 251 | 4.3 | 12.2 | 0.00 | 0.00 | 0.00 | 35 | 1016.3 |
| 20260507175101 | 64 | 238 | 6.1 | 12.2 | 0.00 | 0.00 | 0.00 | 36 | 1016.3 |
| 20260507174601 | 63 | 220 | 5.2 | 11.3 | 0.00 | 0.00 | 0.00 | 37 | 1016.2 |
| 20260507174100 | 63 | 256 | 6.1 | 11.3 | 0.00 | 0.00 | 0.00 | 37 | 1016.4 |
| 20260507173600 | 63 | 224 | 4.3 | 8.7 | 0.00 | 0.00 | 0.00 | 38 | 1016.4 |
| 20260507173101 | 63 | 288 | 5.2 | 10.4 | 0.00 | 0.00 | 0.00 | 35 | 1016.6 |
| 20260507172602 | 63 | 281 | 5.2 | 13.0 | 0.00 | 0.00 | 0.00 | 38 | 1016.7 |
| 20260507172059 | 62 | 217 | 6.1 | 13.0 | 0.00 | 0.00 | 0.00 | 36 | 1016.6 |
| 20260507171603 | 62 | 199 | 6.1 | 13.0 | 0.00 | 0.00 | 0.00 | 35 | 1016.6 |
| 20260507171100 | 62 | 238 | 6.1 | 13.0 | 0.00 | 0.00 | 0.00 | 38 | 1016.6 |
| 20260507170600 | 61 | 241 | 7.0 | 11.3 | 0.00 | 0.00 | 0.00 | 41 | 1016.7 |
| 20260507165600 | 61 | 238 | 5.2 | 12.2 | 0.00 | 0.03 | 0.00 | 43 | 1016.6 |
| 20260507165100 | 61 | 215 | 5.2 | 10.4 | 0.00 | 0.03 | 0.00 | 44 | 1016.6 |
| 20260507164608 | 61 | 209 | 4.3 | 10.4 | 0.00 | 0.03 | 0.00 | 47 | 1016.6 |
| 20260507164101 | 60 | 250 | 5.2 | 11.3 | 0.00 | 0.03 | 0.00 | 44 | 1016.5 |
| 20260507163604 | 60 | 251 | 7.0 | 12.2 | 0.00 | 0.03 | 0.00 | 46 | 1016.5 |
| 20260507163106 | 60 | 255 | 7.0 | 12.2 | 0.00 | 0.03 | 0.00 | 47 | 1016.4 |
| 20260507162601 | 60 | 202 | 6.1 | 10.4 | 0.00 | 0.03 | 0.00 | 50 | 1016.4 |
| 20260507162101 | 59 | 175 | 5.2 | 11.3 | 0.00 | 0.03 | 0.00 | 52 | 1016.3 |
| 20260507161601 | 59 | 153 | 5.2 | 11.3 | 0.00 | 0.03 | 0.00 | 57 | 1016.4 |
| 20260507161104 | 58 | 188 | 4.3 | 10.4 | 0.00 | 0.03 | 0.00 | 56 | 1016.5 |
| 20260507160601 | 58 | 231 | 4.3 | 10.4 | 0.00 | 0.03 | 0.00 | 57 | 1016.5 |
| 20260507160101 | 58 | 151 | 4.3 | 12.2 | 0.00 | 0.03 | 0.00 | 57 | 1016.6 |
| 20260507155600 | 57 | 240 | 5.2 | 12.2 | 0.00 | 0.03 | 0.00 | 58 | 1016.6 |
| 20260507155104 | 57 | 208 | 6.1 | 14.8 | 0.00 | 0.03 | 0.00 | 59 | 1016.5 |
| 20260507154606 | 56 | 244 | 5.2 | 14.8 | 0.00 | 0.03 | 0.00 | 60 | 1016.5 |
| 20260507154100 | 56 | 258 | 6.1 | 13.9 | 0.00 | 0.03 | 0.00 | 60 | 1016.5 |
| 20260507153603 | 56 | 217 | 6.1 | 13.9 | 0.00 | 0.03 | 0.00 | 63 | 1016.4 |
| 20260507153059 | 55 | 217 | 6.1 | 12.2 | 0.00 | 0.03 | 0.00 | 64 | 1016.4 |
| 20260507152559 | 54 | 229 | 7.0 | 11.3 | 0.00 | 0.03 | 0.00 | 65 | 1016.5 |
| 20260507152100 | 54 | 215 | 5.2 | 11.3 | 0.00 | 0.03 | 0.00 | 67 | 1016.6 |
| 20260507151558 | 53 | 213 | 5.2 | 11.3 | 0.00 | 0.03 | 0.00 | 67 | 1016.6 |
| 20260507151059 | 54 | 220 | 6.1 | 11.3 | 0.00 | 0.03 | 0.00 | 66 | 1016.6 |
| 20260507150600 | 54 | 213 | 4.3 | 10.4 | 0.00 | 0.03 | 0.00 | 68 | 1016.6 |
| 20260507150100 | 54 | 223 | 4.3 | 9.6 | 0.00 | 0.03 | 0.00 | 68 | 1016.7 |
| 20260507145601 | 53 | 228 | 3.5 | 9.6 | 0.00 | 0.03 | 0.00 | 68 | 1016.7 |
| 20260507145100 | 53 | 225 | 4.3 | 9.6 | 0.00 | 0.03 | 0.00 | 69 | 1016.7 |
| 20260507144600 | 53 | 205 | 4.3 | 9.6 | 0.00 | 0.03 | 0.00 | 70 | 1016.7 |
| 20260507144101 | 53 | 217 | 3.5 | 8.7 | 0.00 | 0.03 | 0.00 | 71 | 1016.6 |
| 20260507143600 | 52 | 224 | 3.5 | 8.7 | 0.00 | 0.03 | 0.00 | 71 | 1016.5 |
| 20260507143111 | 52 | 179 | 3.5 | 7.8 | 0.00 | 0.03 | 0.00 | 72 | 1016.6 |
| 20260507142559 | 52 | 197 | 3.5 | 7.8 | 0.00 | 0.03 | 0.00 | 73 | 1016.5 |
| 20260507142100 | 51 | 194 | 4.3 | 7.8 | 0.00 | 0.03 | 0.00 | 73 | 1016.3 |
| 20260507141559 | 51 | 207 | 3.5 | 7.8 | 0.00 | 0.03 | 0.00 | 74 | 1016.2 |
| 20260507141102 | 50 | 232 | 3.5 | 7.0 | 0.00 | 0.03 | 0.00 | 75 | 1016.2 |
| 20260507140600 | 50 | 207 | 1.7 | 6.1 | 0.00 | 0.03 | 0.00 | 76 | 1016.2 |
| 20260507140057 | 49 | 201 | 3.5 | 6.1 | 0.00 | 0.03 | 0.00 | 77 | 1016.2 |
| 20260507135559 | 49 | 232 | 2.6 | 6.1 | 0.00 | 0.03 | 0.00 | 78 | 1016.3 |
| 20260507135100 | 48 | 227 | 1.7 | 5.2 | 0.00 | 0.03 | 0.00 | 78 | 1016.2 |
| 20260507134601 | 48 | 186 | 1.7 | 7.0 | 0.00 | 0.03 | 0.00 | 78 | 1016.1 |
| 20260507134057 | 48 | 205 | 2.6 | 7.8 | 0.00 | 0.03 | 0.00 | 78 | 1016.2 |
| 20260507133601 | 48 | 209 | 3.5 | 8.7 | 0.00 | 0.03 | 0.00 | 78 | 1016.2 |
| 20260507133109 | 48 | 202 | 1.7 | 8.7 | 0.00 | 0.03 | 0.00 | 78 | 1015.9 |
| 20260507132559 | 48 | 209 | 2.6 | 8.7 | 0.00 | 0.03 | 0.00 | 78 | 1015.9 |
| 20260507132059 | 48 | 229 | 4.3 | 8.7 | 0.00 | 0.03 | 0.00 | 78 | 1015.9 |
| 20260507131612 | 48 | 229 | 2.6 | 6.1 | 0.00 | 0.03 | 0.00 | 77 | 1016.0 |
| 20260507131100 | 48 | 213 | 3.5 | 7.8 | 0.00 | 0.03 | 0.00 | 77 | 1016.1 |
| 20260507130558 | 48 | 217 | 4.3 | 10.4 | 0.00 | 0.03 | 0.00 | 77 | 1016.2 |
| 20260507130059 | 48 | 241 | 4.3 | 10.4 | 0.00 | 0.03 | 0.00 | 76 | 1016.1 |
| 20260507125600 | 48 | 221 | 7.0 | 10.4 | 0.00 | 0.03 | 0.00 | 77 | 1016.1 |
| 20260507125100 | 48 | 213 | 5.2 | 9.6 | 0.00 | 0.03 | 0.00 | 78 | 1016.0 |
| 20260507124603 | 47 | 223 | 2.6 | 7.0 | 0.00 | 0.03 | 0.00 | 78 | 1016.1 |
| 20260507124059 | 48 | 250 | 3.5 | 7.8 | 0.00 | 0.03 | 0.00 | 78 | 1016.1 |
| 20260507123600 | 47 | 210 | 3.5 | 7.8 | 0.00 | 0.03 | 0.00 | 78 | 1016.2 |
| 20260507123058 | 47 | 241 | 4.3 | 7.8 | 0.00 | 0.03 | 0.00 | 78 | 1016.3 |
| 20260507122557 | 47 | 238 | 3.5 | 7.8 | 0.00 | 0.03 | 0.00 | 78 | 1016.3 |
| 20260507122102 | 47 | 253 | 3.5 | 7.0 | 0.00 | 0.03 | 0.00 | 78 | 1016.3 |
| 20260507121601 | 47 | 248 | 3.5 | 6.1 | 0.00 | 0.03 | 0.00 | 78 | 1016.4 |
| 20260507121101 | 47 | 247 | 1.7 | 5.2 | 0.00 | 0.03 | 0.00 | 77 | 1016.3 |
| 20260507120559 | 48 | 236 | 0.9 | 5.2 | 0.00 | 0.03 | 0.00 | 76 | 1016.3 |
| 20260507120100 | 48 | 232 | 2.6 | 6.1 | 0.00 | 0.03 | 0.00 | 77 | 1016.3 |
| 20260507115600 | 48 | 221 | 2.6 | 7.0 | 0.00 | 0.03 | 0.00 | 78 | 1016.3 |
| 20260507115101 | 47 | 246 | 2.6 | 7.0 | 0.00 | 0.03 | 0.00 | 80 | 1016.3 |
| 20260507114559 | 45 | 228 | 1.7 | 3.5 | 0.00 | 0.03 | 0.00 | 81 | 1016.3 |
| 20260507114059 | 44 | 224 | 0.9 | 3.5 | 0.00 | 0.03 | 0.00 | 82 | 1016.4 |
| 20260507113601 | 44 | 0 | 0.0 | 1.7 | 0.00 | 0.03 | 0.00 | 80 | 1016.4 |
| 20260507113102 | 44 | 0 | 0.0 | 1.7 | 0.00 | 0.03 | 0.00 | 80 | 1016.4 |
| 20260507112603 | 44 | 0 | 0.0 | 1.7 | 0.00 | 0.03 | 0.00 | 79 | 1016.4 |
| 20260507112104 | 44 | 0 | 0.0 | 1.7 | 0.00 | 0.03 | 0.00 | 76 | 1016.5 |
| 20260507111602 | 45 | 0 | 0.0 | 1.7 | 0.00 | 0.03 | 0.00 | 77 | 1016.5 |
| 20260507111100 | 46 | 0 | 0.0 | 0.9 | 0.00 | 0.03 | 0.00 | 76 | 1016.5 |
| 20260507110600 | 46 | 0 | 0.0 | 0.9 | 0.00 | 0.03 | 0.00 | 76 | 1016.6 |
| 20260507110059 | 47 | 0 | 0.0 | 0.9 | 0.00 | 0.03 | 0.00 | 75 | 1016.5 |
| 20260507105600 | 48 | 0 | 0.0 | 1.7 | 0.00 | 0.03 | 0.00 | 74 | 1016.4 |
| 20260507105100 | 48 | 0 | 0.0 | 1.7 | 0.00 | 0.03 | 0.00 | 74 | 1016.4 |
| 20260507104601 | 48 | 0 | 0.0 | 1.7 | 0.00 | 0.03 | 0.00 | 74 | 1016.4 |
| 20260507104100 | 48 | 202 | 0.0 | 3.5 | 0.00 | 0.03 | 0.00 | 74 | 1016.2 |
| 20260507103601 | 49 | 202 | 0.9 | 4.3 | 0.00 | 0.03 | 0.00 | 74 | 1016.2 |
| 20260507103100 | 49 | 227 | 1.7 | 4.3 | 0.00 | 0.03 | 0.00 | 73 | 1016.1 |
| 20260507102559 | 49 | 190 | 0.9 | 3.5 | 0.00 | 0.03 | 0.00 | 73 | 1016.2 |
| 20260507102104 | 49 | 190 | 0.9 | 3.5 | 0.00 | 0.03 | 0.00 | 72 | 1016.3 |
| 20260507101559 | 50 | 194 | 1.7 | 4.3 | 0.00 | 0.03 | 0.00 | 72 | 1016.4 |
| 20260507101058 | 50 | 219 | 1.7 | 4.3 | 0.00 | 0.03 | 0.00 | 72 | 1016.4 |
| 20260507100600 | 50 | 225 | 1.7 | 4.3 | 0.00 | 0.03 | 0.00 | 71 | 1016.5 |
| 20260507100058 | 50 | 213 | 1.7 | 3.5 | 0.00 | 0.03 | 0.00 | 71 | 1016.4 |
| 20260507095557 | 51 | 209 | 1.7 | 5.2 | 0.00 | 0.03 | 0.00 | 71 | 1016.5 |
| 20260507095100 | 51 | 192 | 1.7 | 5.2 | 0.00 | 0.03 | 0.00 | 70 | 1016.4 |
| 20260507094559 | 51 | 230 | 1.7 | 5.2 | 0.00 | 0.03 | 0.00 | 71 | 1016.5 |
| 20260507094103 | 51 | 203 | 1.7 | 6.1 | 0.00 | 0.03 | 0.00 | 71 | 1016.4 |
| 20260507093559 | 51 | 225 | 2.6 | 6.1 | 0.00 | 0.03 | 0.00 | 72 | 1016.3 |
| 20260507093111 | 50 | 232 | 2.6 | 6.1 | 0.00 | 0.03 | 0.00 | 72 | 1016.3 |
| 20260507092603 | 50 | 221 | 2.6 | 4.3 | 0.00 | 0.03 | 0.00 | 73 | 1016.3 |
| 20260507092059 | 50 | 229 | 1.7 | 4.3 | 0.00 | 0.03 | 0.00 | 73 | 1016.4 |
| 20260507091600 | 49 | 243 | 0.9 | 2.6 | 0.00 | 0.03 | 0.00 | 73 | 1016.5 |
| 20260507091102 | 50 | 252 | 0.9 | 3.5 | 0.00 | 0.03 | 0.00 | 72 | 1016.5 |
| 20260507090559 | 50 | 252 | 0.9 | 4.3 | 0.00 | 0.03 | 0.00 | 72 | 1016.5 |
| 20260507090101 | 50 | 251 | 0.9 | 4.3 | 0.00 | 0.03 | 0.00 | 72 | 1016.5 |
| 20260507085557 | 50 | 252 | 0.9 | 3.5 | 0.00 | 0.03 | 0.00 | 71 | 1016.5 |
| 20260507085057 | 50 | 0 | 0.9 | 3.5 | 0.00 | 0.03 | 0.00 | 71 | 1016.5 |
| 20260507084557 | 50 | 252 | 0.9 | 6.1 | 0.00 | 0.03 | 0.00 | 71 | 1016.5 |
| 20260507084057 | 50 | 0 | 0.9 | 6.1 | 0.00 | 0.03 | 0.00 | 71 | 1016.5 |
| 20260507083601 | 51 | 248 | 1.7 | 6.1 | 0.00 | 0.03 | 0.00 | 71 | 1016.4 |
| 20260507083102 | 51 | 247 | 0.9 | 5.2 | 0.00 | 0.03 | 0.00 | 70 | 1016.4 |
| 20260507082601 | 51 | 258 | 1.7 | 7.0 | 0.00 | 0.03 | 0.00 | 70 | 1016.5 |
| 20260507082104 | 51 | 0 | 1.7 | 7.0 | 0.00 | 0.03 | 0.00 | 68 | 1016.5 |
| 20260507081607 | 52 | 228 | 3.5 | 7.0 | 0.00 | 0.03 | 0.00 | 68 | 1016.5 |
| 20260507081059 | 52 | 221 | 4.3 | 7.0 | 0.00 | 0.03 | 0.00 | 68 | 1016.5 |
| 20260507080603 | 52 | 229 | 3.5 | 7.8 | 0.00 | 0.03 | 0.00 | 67 | 1016.4 |
| 20260507080116 | 52 | 185 | 4.3 | 7.8 | 0.00 | 0.03 | 0.00 | 67 | 1016.4 |
| 20260507075559 | 53 | 240 | 3.5 | 7.0 | 0.00 | 0.03 | 0.00 | 67 | 1016.3 |
| 20260507075100 | 52 | 214 | 3.5 | 6.1 | 0.00 | 0.03 | 0.00 | 67 | 1016.3 |
| 20260507074600 | 52 | 235 | 1.7 | 7.8 | 0.00 | 0.03 | 0.00 | 66 | 1016.4 |
| 20260507074059 | 53 | 255 | 2.6 | 7.8 | 0.00 | 0.03 | 0.00 | 65 | 1016.4 |
| 20260507073559 | 53 | 227 | 2.6 | 7.0 | 0.00 | 0.03 | 0.00 | 65 | 1016.6 |
| 20260507073100 | 54 | 219 | 2.6 | 7.0 | 0.00 | 0.03 | 0.00 | 64 | 1016.4 |
| 20260507072601 | 54 | 205 | 2.6 | 6.1 | 0.00 | 0.03 | 0.00 | 62 | 1016.4 |
| 20260507072056 | 54 | 211 | 2.6 | 6.1 | 0.00 | 0.03 | 0.00 | 61 | 1016.4 |
| 20260507071611 | 54 | 214 | 2.6 | 6.1 | 0.00 | 0.03 | 0.00 | 60 | 1016.4 |
| 20260507071102 | 54 | 215 | 3.5 | 7.8 | 0.00 | 0.03 | 0.00 | 59 | 1016.4 |
| 20260507070600 | 54 | 224 | 3.5 | 7.8 | 0.00 | 0.03 | 0.00 | 58 | 1016.5 |
| 20260507070101 | 55 | 215 | 3.5 | 7.8 | 0.00 | 0.03 | 0.00 | 57 | 1016.6 |
| 20260507065600 | 55 | 223 | 2.6 | 7.0 | 0.00 | 0.03 | 0.03 | 55 | 1016.5 |
| 20260507065101 | 55 | 225 | 2.6 | 7.0 | 0.00 | 0.03 | 0.03 | 53 | 1016.5 |
| 20260507064600 | 55 | 211 | 1.7 | 8.7 | 0.00 | 0.03 | 0.03 | 53 | 1016.5 |
| 20260507064059 | 56 | 226 | 3.5 | 9.6 | 0.00 | 0.03 | 0.03 | 52 | 1016.5 |
| 20260507063559 | 56 | 228 | 4.3 | 11.3 | 0.00 | 0.03 | 0.03 | 52 | 1016.4 |
| 20260507063104 | 56 | 202 | 6.1 | 11.3 | 0.00 | 0.03 | 0.03 | 52 | 1016.5 |
| 20260507062558 | 56 | 220 | 3.5 | 8.7 | 0.00 | 0.03 | 0.03 | 52 | 1016.6 |
| 20260507062059 | 56 | 230 | 1.7 | 8.7 | 0.00 | 0.03 | 0.03 | 51 | 1016.6 |
| 20260507061601 | 57 | 205 | 3.5 | 8.7 | 0.00 | 0.03 | 0.03 | 50 | 1016.7 |
| 20260507061057 | 57 | 209 | 4.3 | 9.6 | 0.00 | 0.03 | 0.03 | 49 | 1016.8 |
| 20260507060559 | 57 | 248 | 3.5 | 9.6 | 0.00 | 0.03 | 0.03 | 49 | 1016.8 |
| 20260507055600 | 58 | 320 | 5.2 | 13.9 | 0.00 | 0.03 | 0.03 | 47 | 1016.8 |
| 20260507055100 | 58 | 236 | 7.0 | 13.9 | 0.00 | 0.03 | 0.03 | 47 | 1016.8 |
| 20260507054603 | 58 | 246 | 5.2 | 13.0 | 0.00 | 0.03 | 0.03 | 47 | 1016.9 |
| 20260507054059 | 58 | 248 | 7.0 | 13.0 | 0.00 | 0.03 | 0.03 | 47 | 1016.9 |
| 20260507053600 | 58 | 242 | 5.2 | 11.3 | 0.00 | 0.03 | 0.03 | 48 | 1017.0 |
| 20260507053129 | 58 | 253 | 4.3 | 8.7 | 0.00 | 0.03 | 0.03 | 49 | 1017.0 |
| 20260507052559 | 58 | 261 | 3.5 | 8.7 | 0.00 | 0.03 | 0.03 | 48 | 1017.0 |
| 20260507052100 | 58 | 265 | 3.5 | 12.2 | 0.00 | 0.03 | 0.03 | 48 | 1017.1 |
| 20260507051605 | 58 | 267 | 3.5 | 12.2 | 0.00 | 0.03 | 0.03 | 47 | 1017.2 |
| 20260507051059 | 58 | 259 | 5.2 | 12.2 | 0.00 | 0.03 | 0.03 | 47 | 1017.1 |
| 20260507050600 | 58 | 251 | 4.3 | 9.6 | 0.00 | 0.03 | 0.03 | 46 | 1017.1 |
| 20260507050108 | 59 | 233 | 5.2 | 9.6 | 0.00 | 0.03 | 0.03 | 45 | 1017.1 |
| 20260507045600 | 59 | 244 | 5.2 | 9.6 | 0.00 | 0.03 | 0.03 | 45 | 1017.0 |
| 20260507045058 | 59 | 249 | 5.2 | 12.2 | 0.00 | 0.03 | 0.03 | 46 | 1017.0 |
| 20260507044605 | 59 | 292 | 7.0 | 14.8 | 0.00 | 0.03 | 0.03 | 45 | 1017.1 |
| 20260507044056 | 59 | 277 | 8.7 | 14.8 | 0.00 | 0.03 | 0.03 | 45 | 1017.1 |
| 20260507043559 | 60 | 252 | 8.7 | 14.8 | 0.00 | 0.03 | 0.03 | 45 | 1017.1 |
| 20260507043057 | 60 | 295 | 8.7 | 14.8 | 0.00 | 0.03 | 0.03 | 46 | 1017.0 |
| 20260507042600 | 60 | 269 | 7.8 | 16.5 | 0.00 | 0.03 | 0.03 | 46 | 1017.0 |
| 20260507042103 | 60 | 281 | 7.0 | 16.5 | 0.00 | 0.03 | 0.03 | 46 | 1017.0 |
| 20260507041600 | 60 | 264 | 10.4 | 16.5 | 0.00 | 0.03 | 0.03 | 46 | 1016.7 |
| 20260507041101 | 59 | 298 | 8.7 | 13.0 | 0.00 | 0.03 | 0.03 | 48 | 1016.6 |
| 20260507040559 | 59 | 280 | 3.5 | 7.8 | 0.00 | 0.03 | 0.03 | 50 | 1016.9 |
| 20260507040109 | 60 | 211 | 3.5 | 9.6 | 0.00 | 0.03 | 0.03 | 50 | 1016.9 |
| 20260507035559 | 60 | 283 | 5.2 | 9.6 | 0.00 | 0.03 | 0.03 | 50 | 1016.7 |
| 20260507035058 | 60 | 257 | 4.3 | 8.7 | 0.00 | 0.03 | 0.03 | 49 | 1016.7 |
| 20260507034558 | 61 | 261 | 2.6 | 10.4 | 0.00 | 0.03 | 0.03 | 48 | 1016.6 |
| 20260507034059 | 61 | 262 | 6.1 | 10.4 | 0.00 | 0.03 | 0.03 | 47 | 1016.7 |
| 20260507033600 | 61 | 265 | 4.3 | 11.3 | 0.00 | 0.03 | 0.03 | 46 | 1016.7 |
| 20260507033100 | 62 | 248 | 7.8 | 13.9 | 0.00 | 0.03 | 0.03 | 46 | 1016.6 |
| 20260507032559 | 62 | 279 | 7.8 | 13.9 | 0.00 | 0.03 | 0.03 | 45 | 1016.5 |
| 20260507032057 | 62 | 263 | 7.8 | 13.9 | 0.00 | 0.03 | 0.03 | 45 | 1016.4 |
| 20260507031558 | 63 | 268 | 7.0 | 13.9 | 0.00 | 0.03 | 0.03 | 44 | 1016.4 |
| 20260507031057 | 63 | 272 | 7.8 | 15.6 | 0.00 | 0.03 | 0.03 | 44 | 1016.4 |
| 20260507030556 | 63 | 254 | 8.7 | 15.6 | 0.00 | 0.03 | 0.03 | 44 | 1016.3 |
| 20260507030059 | 63 | 292 | 9.6 | 15.6 | 0.00 | 0.03 | 0.03 | 44 | 1016.4 |
| 20260507025559 | 62 | 278 | 8.7 | 15.6 | 0.00 | 0.03 | 0.03 | 45 | 1016.3 |
| 20260507025059 | 62 | 278 | 8.7 | 13.0 | 0.00 | 0.03 | 0.03 | 46 | 1016.3 |
| 20260507024604 | 62 | 270 | 8.7 | 13.9 | 0.00 | 0.03 | 0.03 | 47 | 1016.2 |
| 20260507024059 | 62 | 285 | 7.8 | 13.9 | 0.00 | 0.03 | 0.03 | 47 | 1016.2 |
| 20260507023602 | 62 | 266 | 7.8 | 13.9 | 0.00 | 0.03 | 0.03 | 47 | 1016.2 |
| 20260507023059 | 63 | 298 | 9.6 | 14.8 | 0.00 | 0.03 | 0.03 | 46 | 1016.2 |
| 20260507022600 | 63 | 286 | 8.7 | 14.8 | 0.00 | 0.03 | 0.03 | 45 | 1016.2 |
| 20260507022100 | 63 | 292 | 10.4 | 14.8 | 0.00 | 0.03 | 0.03 | 45 | 1016.2 |
| 20260507021559 | 63 | 276 | 8.7 | 15.6 | 0.00 | 0.03 | 0.03 | 45 | 1016.2 |
| 20260507021057 | 64 | 300 | 11.3 | 16.5 | 0.00 | 0.03 | 0.03 | 45 | 1016.3 |
| 20260507020604 | 64 | 265 | 11.3 | 17.4 | 0.00 | 0.03 | 0.03 | 43 | 1016.2 |
| 20260507020057 | 64 | 281 | 10.4 | 17.4 | 0.00 | 0.03 | 0.03 | 43 | 1016.3 |
| 20260507015556 | 65 | 286 | 11.3 | 17.4 | 0.00 | 0.03 | 0.03 | 43 | 1016.3 |
| 20260507015056 | 65 | 289 | 10.4 | 17.4 | 0.00 | 0.03 | 0.03 | 43 | 1016.2 |
| 20260507014623 | 65 | 296 | 9.6 | 17.4 | 0.00 | 0.03 | 0.03 | 43 | 1016.3 |
| 20260507014100 | 65 | 272 | 10.4 | 18.2 | 0.00 | 0.03 | 0.03 | 42 | 1016.3 |
| 20260507013603 | 65 | 288 | 10.4 | 18.2 | 0.00 | 0.03 | 0.03 | 42 | 1016.3 |
| 20260507013100 | 65 | 281 | 10.4 | 18.2 | 0.00 | 0.03 | 0.03 | 43 | 1016.3 |
| 20260507012558 | 65 | 267 | 10.4 | 18.2 | 0.00 | 0.03 | 0.03 | 43 | 1016.2 |
| 20260507012057 | 66 | 291 | 10.4 | 20.0 | 0.00 | 0.03 | 0.03 | 43 | 1016.3 |
| 20260507011604 | 66 | 290 | 12.2 | 20.0 | 0.00 | 0.03 | 0.03 | 42 | 1016.2 |
| 20260507011057 | 66 | 283 | 11.3 | 19.1 | 0.00 | 0.03 | 0.03 | 41 | 1016.2 |
| 20260507010600 | 66 | 284 | 7.8 | 16.5 | 0.00 | 0.03 | 0.03 | 42 | 1016.1 |
| 20260507010112 | 66 | 302 | 10.4 | 18.2 | 0.00 | 0.03 | 0.03 | 42 | 1016.3 |
| 20260507005557 | 67 | 312 | 9.6 | 18.2 | 0.00 | 0.03 | 0.03 | 41 | 1016.3 |
| 20260507005100 | 67 | 295 | 11.3 | 18.2 | 0.00 | 0.03 | 0.03 | 40 | 1016.3 |
| 20260507004615 | 67 | 329 | 9.6 | 19.1 | 0.00 | 0.03 | 0.03 | 40 | 1016.2 |
| 20260507004057 | 68 | 317 | 10.4 | 19.1 | 0.00 | 0.03 | 0.03 | 39 | 1016.1 |
| 20260507003557 | 68 | 294 | 12.2 | 19.1 | 0.00 | 0.03 | 0.03 | 39 | 1016.2 |
| 20260507003059 | 68 | 288 | 10.4 | 16.5 | 0.00 | 0.03 | 0.03 | 39 | 1016.1 |
| 20260507002556 | 68 | 296 | 8.7 | 15.6 | 0.00 | 0.03 | 0.03 | 40 | 1016.2 |
| 20260507002058 | 69 | 320 | 8.7 | 15.6 | 0.00 | 0.03 | 0.03 | 40 | 1016.2 |
| 20260507001604 | 69 | 285 | 8.7 | 14.8 | 0.00 | 0.03 | 0.03 | 40 | 1016.1 |
| 20260507001059 | 69 | 295 | 7.8 | 13.9 | 0.00 | 0.03 | 0.03 | 38 | 1016.2 |
| 20260507000556 | 70 | 298 | 8.7 | 13.9 | 0.00 | 0.03 | 0.03 | 38 | 1016.2 |
| 20260507000059 | 70 | 270 | 7.0 | 13.0 | 0.00 | 0.03 | 0.03 | 37 | 1016.1 |
| 20260506235603 | 69 | 288 | 8.7 | 13.9 | 0.00 | 0.03 | 0.03 | 38 | 1016.2 |
| 20260506235100 | 69 | 290 | 8.7 | 16.5 | 0.00 | 0.03 | 0.03 | 39 | 1016.2 |
| 20260506234559 | 69 | 284 | 8.7 | 16.5 | 0.00 | 0.03 | 0.03 | 39 | 1016.2 |
| 20260506234100 | 69 | 287 | 8.7 | 15.6 | 0.00 | 0.03 | 0.03 | 38 | 1016.2 |
| 20260506233559 | 69 | 308 | 10.4 | 14.8 | 0.00 | 0.03 | 0.03 | 38 | 1016.2 |
| 20260506233100 | 70 | 298 | 9.6 | 16.5 | 0.00 | 0.03 | 0.03 | 37 | 1016.2 |
| 20260506232559 | 70 | 273 | 8.7 | 17.4 | 0.00 | 0.03 | 0.03 | 37 | 1016.2 |
| 20260506232059 | 70 | 279 | 9.6 | 18.2 | 0.00 | 0.03 | 0.03 | 36 | 1016.3 |
| 20260506231601 | 71 | 288 | 11.3 | 18.2 | 0.00 | 0.03 | 0.03 | 35 | 1016.3 |
| 20260506231105 | 71 | 302 | 11.3 | 18.2 | 0.00 | 0.03 | 0.03 | 34 | 1016.2 |
| 20260506230557 | 71 | 279 | 12.2 | 21.7 | 0.00 | 0.03 | 0.03 | 34 | 1016.2 |
| 20260506225556 | 72 | 306 | 13.9 | 22.6 | 0.00 | 0.03 | 0.03 | 32 | 1015.9 |
| 20260506225056 | 74 | 269 | 9.6 | 20.9 | 0.00 | 0.03 | 0.03 | 32 | 1015.9 |
| 20260506224558 | 74 | 299 | 13.0 | 23.5 | 0.00 | 0.03 | 0.03 | 32 | 1016.0 |
| 20260506224059 | 74 | 265 | 14.8 | 23.5 | 0.00 | 0.03 | 0.03 | 31 | 1016.1 |
| 20260506223600 | 74 | 296 | 12.2 | 23.5 | 0.00 | 0.03 | 0.03 | 29 | 1016.0 |
| 20260506223100 | 74 | 279 | 12.2 | 21.7 | 0.00 | 0.03 | 0.03 | 30 | 1016.1 |
| 20260506222600 | 74 | 284 | 13.9 | 21.7 | 0.00 | 0.03 | 0.03 | 31 | 1016.1 |
| 20260506222100 | 74 | 296 | 13.0 | 21.7 | 0.00 | 0.03 | 0.03 | 30 | 1016.1 |
| 20260506221558 | 75 | 310 | 11.3 | 20.0 | 0.00 | 0.03 | 0.03 | 31 | 1016.2 |
| 20260506221059 | 75 | 290 | 11.3 | 18.2 | 0.00 | 0.03 | 0.03 | 31 | 1016.1 |
| 20260506220601 | 75 | 271 | 12.2 | 17.4 | 0.00 | 0.03 | 0.03 | 30 | 1016.1 |
| 20260506220059 | 75 | 297 | 12.2 | 21.7 | 0.00 | 0.03 | 0.03 | 29 | 1016.0 |
| 20260506215559 | 75 | 266 | 10.4 | 21.7 | 0.00 | 0.03 | 0.03 | 31 | 1016.1 |
| 20260506215059 | 75 | 282 | 12.2 | 22.6 | 0.00 | 0.03 | 0.03 | 30 | 1016.0 |
| 20260506214605 | 75 | 273 | 11.3 | 22.6 | 0.00 | 0.03 | 0.03 | 32 | 1015.9 |
| 20260506214100 | 74 | 278 | 13.9 | 21.7 | 0.00 | 0.03 | 0.03 | 32 | 1016.0 |
| 20260506213601 | 74 | 311 | 13.0 | 21.7 | 0.00 | 0.03 | 0.03 | 34 | 1015.9 |
| 20260506213059 | 74 | 276 | 13.9 | 21.7 | 0.00 | 0.03 | 0.03 | 36 | 1016.1 |
| 20260506212559 | 73 | 260 | 12.2 | 18.2 | 0.00 | 0.03 | 0.03 | 39 | 1016.1 |
| 20260506212059 | 73 | 302 | 11.3 | 22.6 | 0.00 | 0.03 | 0.03 | 40 | 1016.1 |
| 20260506211605 | 73 | 283 | 9.6 | 22.6 | 0.00 | 0.03 | 0.03 | 41 | 1016.1 |
| 20260506211100 | 73 | 289 | 12.2 | 22.6 | 0.00 | 0.03 | 0.03 | 39 | 1016.1 |
| 20260506210559 | 74 | 278 | 11.3 | 19.1 | 0.00 | 0.03 | 0.03 | 41 | 1016.1 |
| 20260506210059 | 75 | 295 | 10.4 | 20.0 | 0.00 | 0.03 | 0.03 | 41 | 1016.0 |
| 20260506205558 | 74 | 263 | 10.4 | 20.0 | 0.00 | 0.03 | 0.03 | 42 | 1016.0 |
| 20260506205100 | 74 | 288 | 9.6 | 20.9 | 0.00 | 0.03 | 0.03 | 40 | 1016.0 |
| 20260506204600 | 74 | 261 | 11.3 | 20.9 | 0.00 | 0.03 | 0.03 | 42 | 1016.0 |
| 20260506204059 | 74 | 296 | 11.3 | 17.4 | 0.00 | 0.03 | 0.03 | 40 | 1016.0 |
| 20260506203556 | 75 | 275 | 10.4 | 18.2 | 0.00 | 0.03 | 0.03 | 37 | 1015.9 |